Year,Month,Day,Hour,Minute,Value (Times are PST for temperature in C)
2017,06,24,00,00,15.70
2017,06,24,00,01,15.70
2017,06,24,00,02,15.70
2017,06,24,00,03,15.70
2017,06,24,00,04,15.60
2017,06,24,00,05,15.60
2017,06,24,00,06,15.60
2017,06,24,00,07,15.60
2017,06,24,00,08,15.60
2017,06,24,00,09,15.60
2017,06,24,00,10,15.60
2017,06,24,00,11,15.60
2017,06,24,00,12,15.60
2017,06,24,00,13,15.60
2017,06,24,00,14,15.60
2017,06,24,00,15,15.60
2017,06,24,00,16,15.60
2017,06,24,00,17,15.60
2017,06,24,00,18,15.50
2017,06,24,00,19,15.50
2017,06,24,00,20,15.50
2017,06,24,00,21,15.50
2017,06,24,00,22,15.40
2017,06,24,00,23,15.40
2017,06,24,00,24,15.40
2017,06,24,00,25,15.40
2017,06,24,00,26,15.40
2017,06,24,00,27,15.40
2017,06,24,00,28,15.40
2017,06,24,00,29,15.30
2017,06,24,00,30,15.30
2017,06,24,00,31,15.30
2017,06,24,00,32,15.30
2017,06,24,00,33,15.30
2017,06,24,00,34,15.30
2017,06,24,00,35,15.30
2017,06,24,00,36,15.30
2017,06,24,00,37,15.30
2017,06,24,00,38,15.30
2017,06,24,00,39,15.30
2017,06,24,00,40,15.30
2017,06,24,00,41,15.30
2017,06,24,00,42,15.30
2017,06,24,00,43,15.30
2017,06,24,00,44,15.20
2017,06,24,00,45,15.30
2017,06,24,00,46,15.20
2017,06,24,00,47,15.20
2017,06,24,00,48,15.20
2017,06,24,00,49,15.20
2017,06,24,00,50,15.20
2017,06,24,00,51,15.20
2017,06,24,00,52,15.20
2017,06,24,00,53,15.20
2017,06,24,00,54,15.20
2017,06,24,00,55,15.20
2017,06,24,00,56,15.20
2017,06,24,00,57,15.20
2017,06,24,00,58,15.20
2017,06,24,00,59,15.20
2017,06,24,01,00,15.20
2017,06,24,01,01,15.20
2017,06,24,01,02,15.20
2017,06,24,01,03,15.20
2017,06,24,01,04,15.20
2017,06,24,01,05,15.20
2017,06,24,01,06,15.20
2017,06,24,01,07,15.20
2017,06,24,01,08,15.20
2017,06,24,01,09,15.20
2017,06,24,01,10,15.20
2017,06,24,01,11,15.20
2017,06,24,01,12,15.20
2017,06,24,01,13,15.20
2017,06,24,01,14,15.20
2017,06,24,01,15,15.20
2017,06,24,01,16,15.20
2017,06,24,01,17,15.20
2017,06,24,01,18,15.20
2017,06,24,01,19,15.10
2017,06,24,01,20,15.10
2017,06,24,01,21,15.10
2017,06,24,01,22,15.10
2017,06,24,01,23,15.10
2017,06,24,01,24,15.10
2017,06,24,01,25,15.10
2017,06,24,01,26,15.10
2017,06,24,01,27,15.10
2017,06,24,01,28,15.10
2017,06,24,01,29,15.10
2017,06,24,01,30,15.10
2017,06,24,01,31,15.10
2017,06,24,01,32,15.10
2017,06,24,01,33,15.10
2017,06,24,01,34,15.10
2017,06,24,01,35,15.10
2017,06,24,01,36,15.10
2017,06,24,01,37,15.10
2017,06,24,01,38,15.10
2017,06,24,01,39,15.10
2017,06,24,01,40,15.10
2017,06,24,01,41,15.10
2017,06,24,01,42,15.10
2017,06,24,01,43,15.10
2017,06,24,01,44,15.10
2017,06,24,01,45,15.10
2017,06,24,01,46,15.10
2017,06,24,01,47,15.10
2017,06,24,01,48,15.10
2017,06,24,01,49,15.10
2017,06,24,01,50,15.10
2017,06,24,01,51,15.10
2017,06,24,01,52,15.10
2017,06,24,01,53,15.10
2017,06,24,01,54,15.10
2017,06,24,01,55,15.10
2017,06,24,01,56,15.10
2017,06,24,01,57,15.10
2017,06,24,01,58,15.10
2017,06,24,01,59,15.10
2017,06,24,02,00,15.10
2017,06,24,02,01,15.10
2017,06,24,02,02,15.20
2017,06,24,02,03,15.20
2017,06,24,02,04,15.20
2017,06,24,02,05,15.20
2017,06,24,02,06,15.20
2017,06,24,02,07,15.20
2017,06,24,02,08,15.10
2017,06,24,02,09,15.10
2017,06,24,02,10,15.10
2017,06,24,02,11,15.10
2017,06,24,02,12,15.10
2017,06,24,02,13,15.10
2017,06,24,02,14,15.00
2017,06,24,02,15,15.00
2017,06,24,02,16,15.00
2017,06,24,02,17,14.90
2017,06,24,02,18,14.90
2017,06,24,02,19,14.90
2017,06,24,02,20,14.90
2017,06,24,02,21,14.90
2017,06,24,02,22,14.80
2017,06,24,02,23,14.80
2017,06,24,02,24,14.80
2017,06,24,02,25,14.80
2017,06,24,02,26,14.80
2017,06,24,02,27,14.70
2017,06,24,02,28,14.70
2017,06,24,02,29,14.70
2017,06,24,02,30,14.70
2017,06,24,02,31,14.70
2017,06,24,02,32,14.70
2017,06,24,02,33,14.70
2017,06,24,02,34,14.60
2017,06,24,02,35,14.60
2017,06,24,02,36,14.60
2017,06,24,02,37,14.60
2017,06,24,02,38,14.60
2017,06,24,02,39,14.60
2017,06,24,02,40,14.60
2017,06,24,02,41,14.60
2017,06,24,02,42,14.60
2017,06,24,02,43,14.60
2017,06,24,02,44,14.50
2017,06,24,02,45,14.50
2017,06,24,02,46,14.50
2017,06,24,02,47,14.50
2017,06,24,02,48,14.50
2017,06,24,02,49,14.50
2017,06,24,02,50,14.60
2017,06,24,02,51,14.60
2017,06,24,02,52,14.60
2017,06,24,02,53,14.60
2017,06,24,02,54,14.60
2017,06,24,02,55,14.60
2017,06,24,02,56,14.70
2017,06,24,02,57,14.70
2017,06,24,02,58,14.70
2017,06,24,02,59,14.80
2017,06,24,03,00,14.80
2017,06,24,03,01,14.90
2017,06,24,03,02,15.00
2017,06,24,03,03,15.20
2017,06,24,03,04,15.20
2017,06,24,03,05,15.30
2017,06,24,03,06,15.50
2017,06,24,03,07,15.70
2017,06,24,03,08,15.90
2017,06,24,03,09,16.00
2017,06,24,03,10,16.20
2017,06,24,03,11,16.40
2017,06,24,03,12,16.70
2017,06,24,03,13,16.80
2017,06,24,03,14,17.00
2017,06,24,03,15,17.10
2017,06,24,03,16,17.20
2017,06,24,03,17,17.30
2017,06,24,03,18,17.40
2017,06,24,03,19,17.50
2017,06,24,03,20,17.60
2017,06,24,03,21,17.80
2017,06,24,03,22,17.80
2017,06,24,03,23,17.90
2017,06,24,03,24,18.00
2017,06,24,03,25,18.10
2017,06,24,03,26,18.20
2017,06,24,03,27,18.20
2017,06,24,03,28,18.30
2017,06,24,03,29,18.30
2017,06,24,03,30,18.30
2017,06,24,03,31,18.30
2017,06,24,03,32,18.30
2017,06,24,03,33,18.30
2017,06,24,03,34,18.30
2017,06,24,03,35,18.30
2017,06,24,03,36,18.30
2017,06,24,03,37,18.30
2017,06,24,03,38,18.30
2017,06,24,03,39,18.30
2017,06,24,03,40,18.20
2017,06,24,03,41,18.30
2017,06,24,03,42,18.30
2017,06,24,03,43,18.30
2017,06,24,03,44,18.30
2017,06,24,03,45,18.40
2017,06,24,03,46,18.40
2017,06,24,03,47,18.40
2017,06,24,03,48,18.40
2017,06,24,03,49,18.40
2017,06,24,03,50,18.40
2017,06,24,03,51,18.40
2017,06,24,03,52,18.40
2017,06,24,03,53,18.30
2017,06,24,03,54,18.30
2017,06,24,03,55,18.30
2017,06,24,03,56,18.30
2017,06,24,03,57,18.30
2017,06,24,03,58,18.30
2017,06,24,03,59,18.30
2017,06,24,04,00,18.30
2017,06,24,04,01,18.30
2017,06,24,04,02,18.30
2017,06,24,04,03,18.30
2017,06,24,04,04,18.30
2017,06,24,04,05,18.30
2017,06,24,04,06,18.30
2017,06,24,04,07,18.30
2017,06,24,04,08,18.30
2017,06,24,04,09,18.30
2017,06,24,04,10,18.30
2017,06,24,04,11,18.30
2017,06,24,04,12,18.30
2017,06,24,04,13,18.30
2017,06,24,04,14,18.20
2017,06,24,04,15,18.20
2017,06,24,04,16,18.20
2017,06,24,04,17,18.20
2017,06,24,04,18,18.20
2017,06,24,04,19,18.20
2017,06,24,04,20,18.10
2017,06,24,04,21,18.10
2017,06,24,04,22,18.10
2017,06,24,04,23,18.00
2017,06,24,04,24,18.00
2017,06,24,04,25,17.90
2017,06,24,04,26,17.90
2017,06,24,04,27,17.80
2017,06,24,04,28,17.80
2017,06,24,04,29,17.80
2017,06,24,04,30,17.80
2017,06,24,04,31,17.70
2017,06,24,04,32,17.70
2017,06,24,04,33,17.70
2017,06,24,04,34,17.60
2017,06,24,04,35,17.60
2017,06,24,04,36,17.60
2017,06,24,04,37,17.50
2017,06,24,04,38,17.50
2017,06,24,04,39,17.40
2017,06,24,04,40,17.40
2017,06,24,04,41,17.30
2017,06,24,04,42,17.30
2017,06,24,04,43,17.30
2017,06,24,04,44,17.30
2017,06,24,04,45,17.20
2017,06,24,04,46,17.20
2017,06,24,04,47,17.20
2017,06,24,04,48,17.20
2017,06,24,04,49,17.20
2017,06,24,04,50,17.10
2017,06,24,04,51,17.10
2017,06,24,04,52,17.10
2017,06,24,04,53,17.10
2017,06,24,04,54,17.10
2017,06,24,04,55,17.00
2017,06,24,04,56,17.00
2017,06,24,04,57,16.90
2017,06,24,04,58,16.90
2017,06,24,04,59,16.80
2017,06,24,05,00,16.80
2017,06,24,05,01,16.70
2017,06,24,05,02,16.70
2017,06,24,05,03,16.70
2017,06,24,05,04,16.60
2017,06,24,05,05,16.60
2017,06,24,05,06,16.60
2017,06,24,05,07,16.60
2017,06,24,05,08,16.50
2017,06,24,05,09,16.50
2017,06,24,05,10,16.50
2017,06,24,05,11,16.50
2017,06,24,05,12,16.40
2017,06,24,05,13,16.40
2017,06,24,05,14,16.40
2017,06,24,05,15,16.40
2017,06,24,05,16,16.40
2017,06,24,05,17,16.40
2017,06,24,05,18,16.40
2017,06,24,05,19,16.40
2017,06,24,05,20,16.30
2017,06,24,05,21,16.30
2017,06,24,05,22,16.30
2017,06,24,05,23,16.30
2017,06,24,05,24,16.30
2017,06,24,05,25,16.30
2017,06,24,05,26,16.30
2017,06,24,05,27,16.30
2017,06,24,05,28,16.30
2017,06,24,05,29,16.20
2017,06,24,05,30,16.20
2017,06,24,05,31,16.20
2017,06,24,05,32,16.20
2017,06,24,05,33,16.10
2017,06,24,05,34,16.10
2017,06,24,05,35,16.10
2017,06,24,05,36,16.10
2017,06,24,05,37,16.00
2017,06,24,05,38,16.00
2017,06,24,05,39,16.00
2017,06,24,05,40,16.00
2017,06,24,05,41,16.00
2017,06,24,05,42,15.90
2017,06,24,05,43,15.90
2017,06,24,05,44,15.90
2017,06,24,05,45,15.90
2017,06,24,05,46,15.90
2017,06,24,05,47,15.90
2017,06,24,05,48,15.90
2017,06,24,05,49,15.80
2017,06,24,05,50,15.80
2017,06,24,05,51,15.80
2017,06,24,05,52,15.80
2017,06,24,05,53,15.80
2017,06,24,05,54,15.80
2017,06,24,05,55,15.80
2017,06,24,05,56,15.80
2017,06,24,05,57,15.80
2017,06,24,05,58,15.70
2017,06,24,05,59,15.70
2017,06,24,06,00,15.70
2017,06,24,06,01,15.70
2017,06,24,06,02,15.70
2017,06,24,06,03,15.70
2017,06,24,06,04,15.70
2017,06,24,06,05,15.70
2017,06,24,06,06,15.70
2017,06,24,06,07,15.70
2017,06,24,06,08,15.80
2017,06,24,06,09,15.80
2017,06,24,06,10,15.80
2017,06,24,06,11,15.90
2017,06,24,06,12,15.90
2017,06,24,06,13,16.00
2017,06,24,06,14,16.00
2017,06,24,06,15,16.10
2017,06,24,06,16,16.20
2017,06,24,06,17,16.20
2017,06,24,06,18,16.20
2017,06,24,06,19,16.30
2017,06,24,06,20,16.30
2017,06,24,06,21,16.40
2017,06,24,06,22,16.40
2017,06,24,06,23,16.50
2017,06,24,06,24,16.50
2017,06,24,06,25,16.60
2017,06,24,06,26,16.60
2017,06,24,06,27,16.60
2017,06,24,06,28,16.70
2017,06,24,06,29,16.80
2017,06,24,06,30,16.80
2017,06,24,06,31,16.80
2017,06,24,06,32,16.90
2017,06,24,06,33,16.90
2017,06,24,06,34,16.90
2017,06,24,06,35,17.00
2017,06,24,06,36,17.00
2017,06,24,06,37,17.00
2017,06,24,06,38,17.00
2017,06,24,06,39,17.00
2017,06,24,06,40,17.10
2017,06,24,06,41,17.10
2017,06,24,06,42,17.10
2017,06,24,06,43,17.10
2017,06,24,06,44,17.10
2017,06,24,06,45,17.10
2017,06,24,06,46,17.10
2017,06,24,06,47,17.10
2017,06,24,06,48,17.10
2017,06,24,06,49,17.20
2017,06,24,06,50,17.20
2017,06,24,06,51,17.20
2017,06,24,06,52,17.20
2017,06,24,06,53,17.20
2017,06,24,06,54,17.20
2017,06,24,06,55,17.20
2017,06,24,06,56,17.20
2017,06,24,06,57,17.20
2017,06,24,06,58,17.30
2017,06,24,06,59,17.30
2017,06,24,07,00,17.30
2017,06,24,07,01,17.30
2017,06,24,07,02,17.30
2017,06,24,07,03,17.30
2017,06,24,07,04,17.30
2017,06,24,07,05,17.30
2017,06,24,07,06,17.40
2017,06,24,07,07,17.40
2017,06,24,07,08,17.40
2017,06,24,07,09,17.40
2017,06,24,07,10,17.40
2017,06,24,07,11,17.40
2017,06,24,07,12,17.40
2017,06,24,07,13,17.40
2017,06,24,07,14,17.50
2017,06,24,07,15,17.50
2017,06,24,07,16,17.50
2017,06,24,07,17,17.60
2017,06,24,07,18,17.60
2017,06,24,07,19,17.60
2017,06,24,07,20,17.60
2017,06,24,07,21,17.60
2017,06,24,07,22,17.60
2017,06,24,07,23,17.60
2017,06,24,07,24,17.70
2017,06,24,07,25,17.70
2017,06,24,07,26,17.70
2017,06,24,07,27,17.70
2017,06,24,07,28,17.70
2017,06,24,07,29,17.70
2017,06,24,07,30,17.80
2017,06,24,07,31,17.80
2017,06,24,07,32,17.80
2017,06,24,07,33,17.80
2017,06,24,07,34,17.80
2017,06,24,07,35,17.80
2017,06,24,07,36,17.90
2017,06,24,07,37,17.90
2017,06,24,07,38,17.90
2017,06,24,07,39,18.00
2017,06,24,07,40,18.00
2017,06,24,07,41,18.10
2017,06,24,07,42,18.10
2017,06,24,07,43,18.10
2017,06,24,07,44,18.20
2017,06,24,07,45,18.20
2017,06,24,07,46,18.20
2017,06,24,07,47,18.30
2017,06,24,07,48,18.30
2017,06,24,07,49,18.30
2017,06,24,07,50,18.40
2017,06,24,07,51,18.50
2017,06,24,07,52,18.50
2017,06,24,07,53,18.50
2017,06,24,07,54,18.60
2017,06,24,07,55,18.60
2017,06,24,07,56,18.60
2017,06,24,07,57,18.70
2017,06,24,07,58,18.70
2017,06,24,07,59,18.80
2017,06,24,08,00,18.90
2017,06,24,08,01,18.90
2017,06,24,08,02,19.00
2017,06,24,08,03,19.10
2017,06,24,08,04,19.10
2017,06,24,08,05,19.20
2017,06,24,08,06,19.30
2017,06,24,08,07,19.30
2017,06,24,08,08,19.40
2017,06,24,08,09,19.50
2017,06,24,08,10,19.50
2017,06,24,08,11,19.60
2017,06,24,08,12,19.60
2017,06,24,08,13,19.60
2017,06,24,08,14,19.60
2017,06,24,08,15,19.70
2017,06,24,08,16,19.70
2017,06,24,08,17,19.80
2017,06,24,08,18,19.80
2017,06,24,08,19,19.80
2017,06,24,08,20,19.90
2017,06,24,08,21,19.90
2017,06,24,08,22,20.00
2017,06,24,08,23,20.10
2017,06,24,08,24,20.20
2017,06,24,08,25,20.20
2017,06,24,08,26,20.30
2017,06,24,08,27,20.40
2017,06,24,08,28,20.40
2017,06,24,08,29,20.50
2017,06,24,08,30,20.60
2017,06,24,08,31,20.60
2017,06,24,08,32,20.70
2017,06,24,08,33,20.70
2017,06,24,08,34,20.80
2017,06,24,08,35,20.80
2017,06,24,08,36,20.90
2017,06,24,08,37,20.90
2017,06,24,08,38,21.00
2017,06,24,08,39,21.00
2017,06,24,08,40,21.10
2017,06,24,08,41,21.10
2017,06,24,08,42,21.20
2017,06,24,08,43,21.20
2017,06,24,08,44,21.30
2017,06,24,08,45,21.30
2017,06,24,08,46,21.30
2017,06,24,08,47,21.40
2017,06,24,08,48,21.40
2017,06,24,08,49,21.50
2017,06,24,08,50,21.60
2017,06,24,08,51,21.60
2017,06,24,08,52,21.70
2017,06,24,08,53,21.80
2017,06,24,08,54,21.80
2017,06,24,08,55,21.90
2017,06,24,08,56,22.00
2017,06,24,08,57,22.00
2017,06,24,08,58,22.10
2017,06,24,08,59,22.10
2017,06,24,09,00,22.10
2017,06,24,09,01,22.10
2017,06,24,09,02,22.20
2017,06,24,09,03,22.10
2017,06,24,09,04,22.10
2017,06,24,09,05,22.10
2017,06,24,09,06,22.20
2017,06,24,09,07,22.20
2017,06,24,09,08,22.20
2017,06,24,09,09,22.30
2017,06,24,09,10,22.30
2017,06,24,09,11,22.40
2017,06,24,09,12,22.40
2017,06,24,09,13,22.40
2017,06,24,09,14,22.50
2017,06,24,09,15,22.50
2017,06,24,09,16,22.50
2017,06,24,09,17,22.60
2017,06,24,09,18,22.60
2017,06,24,09,19,22.60
2017,06,24,09,20,22.60
2017,06,24,09,21,22.70
2017,06,24,09,22,22.70
2017,06,24,09,23,22.70
2017,06,24,09,24,22.80
2017,06,24,09,25,22.80
2017,06,24,09,26,22.80
2017,06,24,09,27,22.80
2017,06,24,09,28,22.80
2017,06,24,09,29,22.90
2017,06,24,09,30,23.00
2017,06,24,09,31,23.10
2017,06,24,09,32,23.20
2017,06,24,09,33,23.30
2017,06,24,09,34,23.30
2017,06,24,09,35,23.40
2017,06,24,09,36,23.40
2017,06,24,09,37,23.50
2017,06,24,09,38,23.50
2017,06,24,09,39,23.60
2017,06,24,09,40,23.60
2017,06,24,09,41,23.60
2017,06,24,09,42,23.60
2017,06,24,09,43,23.60
2017,06,24,09,44,23.70
2017,06,24,09,45,23.80
2017,06,24,09,46,23.80
2017,06,24,09,47,23.90
2017,06,24,09,48,23.90
2017,06,24,09,49,23.90
2017,06,24,09,50,23.90
2017,06,24,09,51,23.90
2017,06,24,09,52,24.00
2017,06,24,09,53,24.00
2017,06,24,09,54,24.00
2017,06,24,09,55,24.00
2017,06,24,09,56,24.00
2017,06,24,09,57,24.00
2017,06,24,09,58,23.90
2017,06,24,09,59,23.90
2017,06,24,10,00,23.80
2017,06,24,10,01,23.60
2017,06,24,10,02,23.60
2017,06,24,10,03,23.60
2017,06,24,10,04,23.60
2017,06,24,10,05,23.60
2017,06,24,10,06,23.60
2017,06,24,10,07,23.60
2017,06,24,10,08,23.60
2017,06,24,10,09,23.60
2017,06,24,10,10,23.70
2017,06,24,10,11,23.60
2017,06,24,10,12,23.60
2017,06,24,10,13,23.60
2017,06,24,10,14,23.60
2017,06,24,10,15,23.50
2017,06,24,10,16,23.50
2017,06,24,10,17,23.50
2017,06,24,10,18,23.60
2017,06,24,10,19,23.60
2017,06,24,10,20,23.70
2017,06,24,10,21,23.70
2017,06,24,10,22,23.80
2017,06,24,10,23,23.80
2017,06,24,10,24,23.80
2017,06,24,10,25,23.80
2017,06,24,10,26,24.00
2017,06,24,10,27,24.00
2017,06,24,10,28,23.90
2017,06,24,10,29,23.90
2017,06,24,10,30,24.00
2017,06,24,10,31,24.00
2017,06,24,10,32,24.10
2017,06,24,10,33,24.10
2017,06,24,10,34,24.10
2017,06,24,10,35,24.10
2017,06,24,10,36,24.10
2017,06,24,10,37,24.20
2017,06,24,10,38,24.30
2017,06,24,10,39,24.30
2017,06,24,10,40,24.40
2017,06,24,10,41,24.40
2017,06,24,10,42,24.50
2017,06,24,10,43,24.60
2017,06,24,10,44,24.70
2017,06,24,10,45,24.70
2017,06,24,10,46,24.70
2017,06,24,10,47,24.70
2017,06,24,10,48,24.70
2017,06,24,10,49,24.70
2017,06,24,10,50,24.70
2017,06,24,10,51,24.80
2017,06,24,10,52,24.80
2017,06,24,10,53,24.90
2017,06,24,10,54,25.00
2017,06,24,10,55,25.00
2017,06,24,10,56,25.10
2017,06,24,10,57,25.10
2017,06,24,10,58,25.20
2017,06,24,10,59,25.30
2017,06,24,11,00,25.40
2017,06,24,11,01,25.40
2017,06,24,11,02,25.40
2017,06,24,11,03,25.40
2017,06,24,11,04,25.40
2017,06,24,11,05,25.40
2017,06,24,11,06,25.40
2017,06,24,11,07,25.40
2017,06,24,11,08,25.40
2017,06,24,11,09,25.50
2017,06,24,11,10,25.60
2017,06,24,11,11,25.60
2017,06,24,11,12,25.70
2017,06,24,11,13,25.70
2017,06,24,11,14,25.80
2017,06,24,11,15,25.90
2017,06,24,11,16,25.90
2017,06,24,11,17,25.90
2017,06,24,11,18,25.80
2017,06,24,11,19,25.80
2017,06,24,11,20,25.70
2017,06,24,11,21,25.70
2017,06,24,11,22,25.70
2017,06,24,11,23,25.60
2017,06,24,11,24,25.50
2017,06,24,11,25,25.50
2017,06,24,11,26,25.60
2017,06,24,11,27,25.60
2017,06,24,11,28,25.70
2017,06,24,11,29,25.80
2017,06,24,11,30,25.80
2017,06,24,11,31,25.90
2017,06,24,11,32,25.90
2017,06,24,11,33,25.80
2017,06,24,11,34,25.80
2017,06,24,11,35,25.90
2017,06,24,11,36,26.00
2017,06,24,11,37,26.10
2017,06,24,11,38,26.20
2017,06,24,11,39,26.20
2017,06,24,11,40,26.30
2017,06,24,11,41,26.30
2017,06,24,11,42,26.40
2017,06,24,11,43,26.40
2017,06,24,11,44,26.40
2017,06,24,11,45,26.40
2017,06,24,11,46,26.40
2017,06,24,11,47,26.40
2017,06,24,11,48,26.50
2017,06,24,11,49,26.50
2017,06,24,11,50,26.50
2017,06,24,11,51,26.40
2017,06,24,11,52,26.50
2017,06,24,11,53,26.60
2017,06,24,11,54,26.70
2017,06,24,11,55,26.70
2017,06,24,11,56,26.60
2017,06,24,11,57,26.50
2017,06,24,11,58,26.30
2017,06,24,11,59,26.20
2017,06,24,12,00,26.20
2017,06,24,12,01,26.20
2017,06,24,12,02,26.20
2017,06,24,12,03,26.20
2017,06,24,12,04,26.20
2017,06,24,12,05,26.10
2017,06,24,12,06,25.90
2017,06,24,12,07,25.90
2017,06,24,12,08,25.80
2017,06,24,12,09,25.80
2017,06,24,12,10,25.70
2017,06,24,12,11,25.70
2017,06,24,12,12,25.90
2017,06,24,12,13,25.90
2017,06,24,12,14,26.00
2017,06,24,12,15,26.00
2017,06,24,12,16,26.00
2017,06,24,12,17,26.00
2017,06,24,12,18,26.00
2017,06,24,12,19,25.90
2017,06,24,12,20,26.00
2017,06,24,12,21,26.00
2017,06,24,12,22,26.10
2017,06,24,12,23,26.00
2017,06,24,12,24,25.90
2017,06,24,12,25,25.80
2017,06,24,12,26,25.80
2017,06,24,12,27,25.90
2017,06,24,12,28,25.90
2017,06,24,12,29,25.90
2017,06,24,12,30,25.90
2017,06,24,12,31,26.00
2017,06,24,12,32,26.00
2017,06,24,12,33,26.00
2017,06,24,12,34,25.90
2017,06,24,12,35,25.80
2017,06,24,12,36,25.90
2017,06,24,12,37,25.80
2017,06,24,12,38,25.80
2017,06,24,12,39,25.70
2017,06,24,12,40,25.70
2017,06,24,12,41,25.90
2017,06,24,12,42,26.10
2017,06,24,12,43,26.20
2017,06,24,12,44,26.20
2017,06,24,12,45,26.10
2017,06,24,12,46,26.20
2017,06,24,12,47,26.40
2017,06,24,12,48,26.50
2017,06,24,12,49,26.60
2017,06,24,12,50,26.80
2017,06,24,12,51,26.90
2017,06,24,12,52,26.90
2017,06,24,12,53,26.90
2017,06,24,12,54,26.90
2017,06,24,12,55,26.80
2017,06,24,12,56,26.70
2017,06,24,12,57,26.70
2017,06,24,12,58,26.70
2017,06,24,12,59,26.60
2017,06,24,13,00,26.60
2017,06,24,13,01,26.60
2017,06,24,13,02,26.70
2017,06,24,13,03,26.70
2017,06,24,13,04,26.70
2017,06,24,13,05,26.70
2017,06,24,13,06,26.80
2017,06,24,13,07,26.80
2017,06,24,13,08,26.80
2017,06,24,13,09,26.70
2017,06,24,13,10,26.60
2017,06,24,13,11,26.50
2017,06,24,13,12,26.20
2017,06,24,13,13,26.10
2017,06,24,13,14,26.10
2017,06,24,13,15,26.20
2017,06,24,13,16,26.20
2017,06,24,13,17,26.20
2017,06,24,13,18,26.20
2017,06,24,13,19,26.20
2017,06,24,13,20,26.30
2017,06,24,13,21,26.40
2017,06,24,13,22,26.50
2017,06,24,13,23,26.60
2017,06,24,13,24,26.60
2017,06,24,13,25,26.60
2017,06,24,13,26,26.50
2017,06,24,13,27,26.40
2017,06,24,13,28,26.40
2017,06,24,13,29,26.40
2017,06,24,13,30,26.20
2017,06,24,13,31,26.00
2017,06,24,13,32,25.90
2017,06,24,13,33,25.90
2017,06,24,13,34,26.00
2017,06,24,13,35,26.20
2017,06,24,13,36,26.30
2017,06,24,13,37,26.30
2017,06,24,13,38,26.40
2017,06,24,13,39,26.50
2017,06,24,13,40,26.60
2017,06,24,13,41,26.70
2017,06,24,13,42,26.80
2017,06,24,13,43,27.00
2017,06,24,13,44,27.10
2017,06,24,13,45,27.00
2017,06,24,13,46,26.90
2017,06,24,13,47,26.80
2017,06,24,13,48,26.70
2017,06,24,13,49,26.60
2017,06,24,13,50,26.60
2017,06,24,13,51,26.60
2017,06,24,13,52,26.70
2017,06,24,13,53,26.70
2017,06,24,13,54,26.70
2017,06,24,13,55,26.80
2017,06,24,13,56,27.10
2017,06,24,13,57,27.20
2017,06,24,13,58,27.30
2017,06,24,13,59,27.40
2017,06,24,14,00,27.30
2017,06,24,14,01,27.30
2017,06,24,14,02,27.20
2017,06,24,14,03,27.20
2017,06,24,14,04,27.10
2017,06,24,14,05,27.00
2017,06,24,14,06,27.00
2017,06,24,14,07,27.00
2017,06,24,14,08,27.10
2017,06,24,14,09,27.10
2017,06,24,14,10,27.20
2017,06,24,14,11,27.10
2017,06,24,14,12,27.00
2017,06,24,14,13,27.00
2017,06,24,14,14,26.90
2017,06,24,14,15,27.00
2017,06,24,14,16,27.00
2017,06,24,14,17,27.10
2017,06,24,14,18,27.10
2017,06,24,14,19,27.00
2017,06,24,14,20,27.00
2017,06,24,14,21,27.20
2017,06,24,14,22,27.40
2017,06,24,14,23,27.40
2017,06,24,14,24,27.30
2017,06,24,14,25,27.30
2017,06,24,14,26,27.40
2017,06,24,14,27,27.30
2017,06,24,14,28,27.20
2017,06,24,14,29,27.00
2017,06,24,14,30,26.80
2017,06,24,14,31,26.50
2017,06,24,14,32,26.40
2017,06,24,14,33,26.40
2017,06,24,14,34,26.30
2017,06,24,14,35,26.30
2017,06,24,14,36,26.30
2017,06,24,14,37,26.20
2017,06,24,14,38,26.20
2017,06,24,14,39,26.10
2017,06,24,14,40,26.10
2017,06,24,14,41,26.20
2017,06,24,14,42,26.40
2017,06,24,14,43,26.50
2017,06,24,14,44,26.60
2017,06,24,14,45,26.50
2017,06,24,14,46,26.50
2017,06,24,14,47,26.60
2017,06,24,14,48,26.50
2017,06,24,14,49,26.50
2017,06,24,14,50,26.40
2017,06,24,14,51,26.40
2017,06,24,14,52,26.50
2017,06,24,14,53,26.40
2017,06,24,14,54,26.30
2017,06,24,14,55,26.30
2017,06,24,14,56,26.20
2017,06,24,14,57,26.30
2017,06,24,14,58,26.40
2017,06,24,14,59,26.60
2017,06,24,15,00,26.80
2017,06,24,15,01,26.90
2017,06,24,15,02,26.90
2017,06,24,15,03,26.90
2017,06,24,15,04,26.90
2017,06,24,15,05,27.00
2017,06,24,15,06,27.10
2017,06,24,15,07,27.10
2017,06,24,15,08,27.20
2017,06,24,15,09,27.30
2017,06,24,15,10,27.50
2017,06,24,15,11,27.80
2017,06,24,15,12,27.90
2017,06,24,15,13,27.80
2017,06,24,15,14,27.80
2017,06,24,15,15,27.80
2017,06,24,15,16,27.70
2017,06,24,15,17,27.70
2017,06,24,15,18,27.70
2017,06,24,15,19,27.80
2017,06,24,15,20,27.90
2017,06,24,15,21,27.90
2017,06,24,15,22,28.00
2017,06,24,15,23,28.10
2017,06,24,15,24,28.10
2017,06,24,15,25,28.10
2017,06,24,15,26,28.10
2017,06,24,15,27,28.10
2017,06,24,15,28,28.10
2017,06,24,15,29,28.10
2017,06,24,15,30,28.10
2017,06,24,15,31,28.10
2017,06,24,15,32,28.00
2017,06,24,15,33,27.90
2017,06,24,15,34,27.90
2017,06,24,15,35,27.90
2017,06,24,15,36,27.90
2017,06,24,15,37,27.90
2017,06,24,15,38,27.90
2017,06,24,15,39,27.90
2017,06,24,15,40,28.00
2017,06,24,15,41,28.20
2017,06,24,15,42,28.40
2017,06,24,15,43,28.50
2017,06,24,15,44,28.50
2017,06,24,15,45,28.50
2017,06,24,15,46,28.40
2017,06,24,15,47,28.30
2017,06,24,15,48,28.30
2017,06,24,15,49,28.30
2017,06,24,15,50,28.30
2017,06,24,15,51,28.50
2017,06,24,15,52,28.60
2017,06,24,15,53,28.60
2017,06,24,15,54,28.70
2017,06,24,15,55,28.70
2017,06,24,15,56,28.80
2017,06,24,15,57,28.90
2017,06,24,15,58,29.10
2017,06,24,15,59,29.20
2017,06,24,16,00,29.40
2017,06,24,16,01,29.60
2017,06,24,16,02,29.70
2017,06,24,16,03,29.80
2017,06,24,16,04,29.80
2017,06,24,16,05,29.90
2017,06,24,16,06,29.90
2017,06,24,16,07,29.90
2017,06,24,16,08,29.90
2017,06,24,16,09,29.90
2017,06,24,16,10,29.90
2017,06,24,16,11,29.80
2017,06,24,16,12,29.80
2017,06,24,16,13,29.80
2017,06,24,16,14,29.90
2017,06,24,16,15,29.80
2017,06,24,16,16,29.80
2017,06,24,16,17,29.80
2017,06,24,16,18,29.70
2017,06,24,16,19,29.70
2017,06,24,16,20,29.60
2017,06,24,16,21,29.50
2017,06,24,16,22,29.40
2017,06,24,16,23,29.40
2017,06,24,16,24,29.30
2017,06,24,16,25,29.30
2017,06,24,16,26,29.30
2017,06,24,16,27,29.40
2017,06,24,16,28,29.40
2017,06,24,16,29,29.40
2017,06,24,16,30,29.50
2017,06,24,16,31,29.50
2017,06,24,16,32,29.60
2017,06,24,16,33,29.50
2017,06,24,16,34,29.50
2017,06,24,16,35,29.60
2017,06,24,16,36,29.70
2017,06,24,16,37,29.80
2017,06,24,16,38,29.80
2017,06,24,16,39,29.60
2017,06,24,16,40,29.60
2017,06,24,16,41,29.60
2017,06,24,16,42,29.60
2017,06,24,16,43,29.60
2017,06,24,16,44,29.60
2017,06,24,16,45,29.60
2017,06,24,16,46,29.70
2017,06,24,16,47,29.70
2017,06,24,16,48,29.70
2017,06,24,16,49,29.70
2017,06,24,16,50,29.70
2017,06,24,16,51,29.50
2017,06,24,16,52,29.30
2017,06,24,16,53,29.20
2017,06,24,16,54,29.00
2017,06,24,16,55,28.90
2017,06,24,16,56,28.80
2017,06,24,16,57,28.80
2017,06,24,16,58,28.70
2017,06,24,16,59,28.70
2017,06,24,17,00,28.60
2017,06,24,17,01,28.60
2017,06,24,17,02,28.50
2017,06,24,17,03,28.50
2017,06,24,17,04,28.40
2017,06,24,17,05,28.50
2017,06,24,17,06,28.60
2017,06,24,17,07,28.60
2017,06,24,17,08,28.60
2017,06,24,17,09,28.70
2017,06,24,17,10,28.80
2017,06,24,17,11,28.80
2017,06,24,17,12,28.80
2017,06,24,17,13,28.80
2017,06,24,17,14,28.70
2017,06,24,17,15,28.70
2017,06,24,17,16,28.60
2017,06,24,17,17,28.60
2017,06,24,17,18,28.60
2017,06,24,17,19,28.60